sat.trackr.live / text

‹ back to catalog

STARLINK-2055

NORAD 47358 · 2021-005K

PAYLOAD ACTIVE UNKNOWN

§ Identity

Operator
Country
US
Launch date
2021-01-20
Launch site
AFETR
Launch vehicle
Mass (kg)
RCS (m²)

Purposes: comms

External: N2YO · Heavens-Above · Gunter

§ Orbital elements

Epoch: 2026-05-25T02:57:01.615104Z

Period
94.09 min
Inclination
53.1603°
Eccentricity
0.0001415
Mean motion
15.30390891 rev/d
Perigee alt
473.7 km
Apogee alt
475.6 km
Semi-major
6,852.8 km
B*
1.5975e-3
RAAN
41.7425°
Arg perigee
111.6336°
Mean anomaly
248.4815°
Rev number
29,508

§ Raw data

STARLINK-20551 47358U 21005K   26145.12293536  .00047540  00000+0  15975-2 0  99922 47358  53.1603  41.7425 0001415 111.6336 248.4815 15.30390891295087

JSON: /api/v1/satellites/47358 · /tle

For live sub-satellite position, see the globe view (requires WebGL).

§ Visibility from observer

Set your observer location to see the next 7 days of passes ≥ 10°. The values pass through the URL so the page stays shareable.

No JS? Fill the form by hand. The geolocation button needs JavaScript.